No particular awareness of the weather is required.    There are no Weather-warnings


Meteo18 Weather Cam more information Meteo18 Weather Cam


Thunder radar more information blitzortung!


Rain radar more information rain snow radar


Visit our other weather sites:

Template documentation
and downloads

And another site



Weather Underground History page Text

Daily Summary for September 13, 2017 Units:  Metric    English   Both
« Previous Day
Next Day »
Daily Weekly Monthly Yearly Custom
  High: Low: Average:
Temperature: 22.7 °C 12.4 °C 17.3 °C
Dew Point: 17.4 °C 9.1 °C 14.4 °C
Humidity: 96 % 66 % 84 %
Wind Speed: 43.4 km/h 3.2 km/h 19 km/h
Wind Gust: 56.3 km/h - -
Wind:- - SW
Pressure: 1016.8 hPa 1011.4 hPa -
Precipitation: 3.8 mm    
Historical Graphs
 
 
Tabular Data for September 13, 2017
Time Temperature Dew Point Pressure Wind Wind Speed Wind Gust Humidity Rainfall Rate (Hourly)
00:02 12.5 °C 9.1 °C 1016.5 hPa SW 9.7 km/h 12.9 km/h 80 % 0.0 mm
00:07 12.4 °C 9.2 °C 1016.8 hPa SW 6.4 km/h 14.5 km/h 81 % 0.0 mm
00:12 12.4 °C 9.4 °C 1016.8 hPa SSW 3.2 km/h 14.5 km/h 82 % 0.0 mm
00:17 12.5 °C 9.5 °C 1016.5 hPa SSW 9.7 km/h 14.5 km/h 82 % 0.0 mm
00:22 12.6 °C 9.6 °C 1016.5 hPa SSW 9.7 km/h 12.9 km/h 82 % 0.0 mm
00:27 12.6 °C 9.6 °C 1016.5 hPa SW 11.3 km/h 12.9 km/h 82 % 0.0 mm
00:32 12.6 °C 9.6 °C 1016.5 hPa WSW 6.4 km/h 12.9 km/h 82 % 0.0 mm
00:37 12.7 °C 9.7 °C 1016.5 hPa SW 4.8 km/h 12.9 km/h 82 % 0.0 mm
00:42 12.7 °C 9.7 °C 1016.5 hPa SSE 9.7 km/h 14.5 km/h 82 % 0.0 mm
00:52 12.7 °C 9.7 °C 1016.5 hPa SW 6.4 km/h 17.7 km/h 82 % 0.0 mm
00:57 12.8 °C 9.8 °C 1016.5 hPa SW 11.3 km/h 19.3 km/h 82 % 0.0 mm
01:07 12.9 °C 9.9 °C 1016.1 hPa SW 8.0 km/h 20.9 km/h 82 % 0.0 mm
01:12 13.0 °C 10.0 °C 1016.1 hPa South 9.7 km/h 20.9 km/h 82 % 0.0 mm
01:17 13.1 °C 9.9 °C 1016.1 hPa SW 6.4 km/h 22.5 km/h 81 % 0.0 mm
01:22 13.1 °C 9.9 °C 1016.1 hPa SW 11.3 km/h 22.5 km/h 81 % 0.0 mm
01:27 13.2 °C 10.0 °C 1016.1 hPa SW 8.0 km/h 24.1 km/h 81 % 0.0 mm
01:32 13.2 °C 10.0 °C 1015.8 hPa WSW 11.3 km/h 24.1 km/h 81 % 0.0 mm
01:37 13.3 °C 10.1 °C 1015.8 hPa SSW 9.7 km/h 24.1 km/h 81 % 0.0 mm
01:42 13.4 °C 10.0 °C 1015.8 hPa SSW 8.0 km/h 20.9 km/h 80 % 0.0 mm
01:47 13.5 °C 10.1 °C 1015.8 hPa SW 14.5 km/h 22.5 km/h 80 % 0.0 mm
01:52 13.6 °C 10.2 °C 1015.8 hPa South 12.9 km/h 27.4 km/h 80 % 0.0 mm
01:57 13.6 °C 10.0 °C 1015.8 hPa SSW 14.5 km/h 27.4 km/h 79 % 0.0 mm
02:02 13.7 °C 10.1 °C 1015.8 hPa SSE 11.3 km/h 27.4 km/h 79 % 0.0 mm
02:07 13.8 °C 10.2 °C 1015.5 hPa SW 17.7 km/h 27.4 km/h 79 % 0.0 mm
02:12 13.8 °C 10.2 °C 1015.5 hPa SSW 19.3 km/h 27.4 km/h 79 % 0.0 mm
02:22 13.9 °C 10.3 °C 1015.5 hPa SW 20.9 km/h 29.0 km/h 79 % 0.0 mm
02:32 13.9 °C 10.3 °C 1015.1 hPa SSW 20.9 km/h 32.2 km/h 79 % 0.0 mm
02:37 14.1 °C 10.3 °C 1015.1 hPa SW 19.3 km/h 32.2 km/h 78 % 0.0 mm
02:42 14.1 °C 10.3 °C 1015.1 hPa SW 19.3 km/h 35.4 km/h 78 % 0.0 mm
02:47 14.1 °C 10.3 °C 1015.1 hPa SSW 14.5 km/h 35.4 km/h 78 % 0.0 mm
02:52 14.0 °C 10.4 °C 1015.1 hPa SSW 25.7 km/h 35.4 km/h 79 % 0.0 mm
03:02 13.9 °C 10.3 °C 1014.8 hPa WSW 19.3 km/h 29.0 km/h 79 % 0.0 mm
03:12 13.7 °C 10.5 °C 1014.8 hPa SSW 14.5 km/h 30.6 km/h 81 % 0.0 mm
03:17 13.6 °C 10.6 °C 1014.8 hPa SW 14.5 km/h 30.6 km/h 82 % 0.0 mm
03:22 13.6 °C 10.6 °C 1014.8 hPa South 12.9 km/h 30.6 km/h 82 % 0.0 mm
03:32 13.6 °C 10.8 °C 1014.4 hPa SW 11.3 km/h 27.4 km/h 83 % 0.0 mm
03:42 13.7 °C 11.0 °C 1014.4 hPa SSW 14.5 km/h 27.4 km/h 84 % 0.0 mm
03:47 13.7 °C 11.0 °C 1014.4 hPa SW 16.1 km/h 27.4 km/h 84 % 0.0 mm
03:52 13.9 °C 11.1 °C 1014.1 hPa SW 16.1 km/h 27.4 km/h 83 % 0.0 mm
03:57 14.1 °C 11.1 °C 1013.8 hPa SSW 17.7 km/h 30.6 km/h 82 % 0.0 mm
04:02 14.1 °C 11.3 °C 1013.8 hPa WSW 14.5 km/h 30.6 km/h 83 % 0.0 mm
04:07 14.2 °C 11.5 °C 1013.8 hPa SW 22.5 km/h 30.6 km/h 84 % 0.0 mm
04:12 14.1 °C 11.6 °C 1014.1 hPa SW 19.3 km/h 30.6 km/h 85 % 0.0 mm
04:17 14.1 °C 11.8 °C 1014.1 hPa SSW 19.3 km/h 35.4 km/h 86 % 0.0 mm
04:22 14.1 °C 12.0 °C 1014.1 hPa SW 14.5 km/h 35.4 km/h 87 % 0.0 mm
04:27 13.9 °C 11.9 °C 1013.8 hPa SSW 27.4 km/h 35.4 km/h 88 % 0.0 mm
04:32 13.7 °C 12.1 °C 1013.8 hPa WSW 16.1 km/h 40.2 km/h 90 % 0.0 mm
04:37 13.6 °C 12.2 °C 1013.8 hPa SSW 9.7 km/h 40.2 km/h 91 % 0.0 mm
04:42 13.5 °C 12.2 °C 1013.8 hPa SW 24.1 km/h 40.2 km/h 92 % 0.3 mm
04:47 13.4 °C 12.1 °C 1013.8 hPa SW 16.1 km/h 29.0 km/h 92 % 0.3 mm
04:52 13.5 °C 12.4 °C 1013.4 hPa SSW 14.5 km/h 29.0 km/h 93 % 0.3 mm
04:57 13.5 °C 12.4 °C 1013.4 hPa SSW 11.3 km/h 29.0 km/h 93 % 0.3 mm
05:02 13.5 °C 12.4 °C 1013.4 hPa SW 20.9 km/h 29.0 km/h 93 % 0.3 mm
05:12 13.5 °C 12.4 °C 1013.4 hPa SSW 9.7 km/h 29.0 km/h 93 % 0.3 mm
05:22 13.5 °C 12.4 °C 1013.4 hPa SSW 14.5 km/h 29.0 km/h 93 % 0.5 mm
05:27 13.6 °C 12.5 °C 1013.4 hPa SW 14.5 km/h 29.0 km/h 93 % 0.5 mm
05:32 13.6 °C 12.5 °C 1013.4 hPa WSW 12.9 km/h 29.0 km/h 93 % 0.5 mm
05:37 13.6 °C 12.5 °C 1013.4 hPa SSW 16.1 km/h 25.7 km/h 93 % 0.8 mm
05:42 13.7 °C 12.4 °C 1013.1 hPa SW 16.1 km/h 25.7 km/h 92 % 0.8 mm
05:47 13.8 °C 12.5 °C 1013.1 hPa SW 12.9 km/h 30.6 km/h 92 % 0.5 mm
05:52 13.9 °C 12.6 °C 1013.1 hPa SW 11.3 km/h 30.6 km/h 92 % 0.5 mm
05:57 14.0 °C 12.6 °C 1013.1 hPa SW 20.9 km/h 30.6 km/h 91 % 0.5 mm
06:02 14.2 °C 12.8 °C 1013.1 hPa SW 14.5 km/h 25.7 km/h 91 % 0.5 mm
06:12 14.3 °C 12.9 °C 1013.1 hPa SW 12.9 km/h 27.4 km/h 91 % 0.5 mm
06:17 14.3 °C 12.9 °C 1013.1 hPa WSW 14.5 km/h 30.6 km/h 91 % 0.5 mm
06:22 14.3 °C 13.0 °C 1013.1 hPa SW 24.1 km/h 30.6 km/h 92 % 0.5 mm
06:32 14.3 °C 13.0 °C 1013.1 hPa SW 19.3 km/h 35.4 km/h 92 % 0.5 mm
06:37 14.3 °C 13.2 °C 1013.1 hPa SSW 25.7 km/h 35.4 km/h 93 % 0.5 mm
06:42 14.3 °C 13.2 °C 1013.1 hPa SW 24.1 km/h 35.4 km/h 93 % 0.3 mm
06:47 14.3 °C 13.2 °C 1013.1 hPa SW 11.3 km/h 35.4 km/h 93 % 0.3 mm
06:52 14.4 °C 13.3 °C 1013.1 hPa WSW 22.5 km/h 33.8 km/h 93 % 0.5 mm
06:57 14.3 °C 13.3 °C 1013.1 hPa SW 17.7 km/h 33.8 km/h 94 % 0.5 mm
07:02 14.4 °C 13.4 °C 1013.1 hPa SSW 17.7 km/h 29.0 km/h 94 % 0.5 mm
07:07 14.5 °C 13.5 °C 1013.4 hPa SW 24.1 km/h 29.0 km/h 94 % 0.5 mm
07:17 14.6 °C 13.6 °C 1013.4 hPa WSW 22.5 km/h 33.8 km/h 94 % 0.5 mm
07:22 14.6 °C 13.6 °C 1013.4 hPa SW 19.3 km/h 33.8 km/h 94 % 0.5 mm
07:32 14.7 °C 13.9 °C 1013.4 hPa SSW 17.7 km/h 33.8 km/h 95 % 0.5 mm
07:37 14.7 °C 13.9 °C 1013.4 hPa West 17.7 km/h 30.6 km/h 95 % 0.5 mm
07:42 14.8 °C 13.8 °C 1013.4 hPa SW 27.4 km/h 30.6 km/h 94 % 0.5 mm
07:47 14.8 °C 13.8 °C 1013.4 hPa SW 16.1 km/h 35.4 km/h 94 % 0.5 mm
07:52 14.8 °C 13.8 °C 1013.4 hPa SW 11.3 km/h 35.4 km/h 94 % 0.5 mm
07:57 14.8 °C 14.0 °C 1013.4 hPa SW 19.3 km/h 35.4 km/h 95 % 0.3 mm
08:02 14.8 °C 14.0 °C 1013.4 hPa SW 17.7 km/h 35.4 km/h 95 % 0.3 mm
08:12 14.9 °C 14.1 °C 1013.8 hPa SW 12.9 km/h 33.8 km/h 95 % 0.3 mm
08:17 14.9 °C 14.1 °C 1013.8 hPa SW 20.9 km/h 30.6 km/h 95 % 0.5 mm
08:22 14.9 °C 14.1 °C 1013.8 hPa WSW 14.5 km/h 30.6 km/h 95 % 0.5 mm
08:32 14.9 °C 14.1 °C 1013.8 hPa SW 25.7 km/h 29.0 km/h 95 % 0.3 mm
08:42 15.1 °C 14.5 °C 1013.8 hPa SW 25.7 km/h 29.0 km/h 96 % 0.5 mm
08:47 15.1 °C 14.5 °C 1013.8 hPa SW 20.9 km/h 30.6 km/h 96 % 0.5 mm
08:52 15.2 °C 14.6 °C 1013.8 hPa SSW 9.7 km/h 30.6 km/h 96 % 0.5 mm
08:57 15.2 °C 14.6 °C 1013.8 hPa SW 19.3 km/h 30.6 km/h 96 % 0.5 mm
09:02 15.3 °C 14.7 °C 1013.8 hPa SW 14.5 km/h 29.0 km/h 96 % 0.5 mm
09:12 15.4 °C 14.8 °C 1014.1 hPa SW 9.7 km/h 27.4 km/h 96 % 0.3 mm
09:17 15.4 °C 14.8 °C 1014.1 hPa SSW 14.5 km/h 25.7 km/h 96 % 0.3 mm
09:22 15.4 °C 14.8 °C 1014.1 hPa SW 17.7 km/h 25.7 km/h 96 % 0.3 mm
09:32 15.6 °C 15.0 °C 1014.4 hPa SSW 16.1 km/h 25.7 km/h 96 % 0.3 mm
09:42 15.7 °C 15.1 °C 1014.4 hPa SW 14.5 km/h 30.6 km/h 96 % 0.3 mm
09:52 15.7 °C 15.1 °C 1014.4 hPa WSW 11.3 km/h 25.7 km/h 96 % 0.3 mm
09:57 15.8 °C 15.2 °C 1014.4 hPa West 9.7 km/h 25.7 km/h 96 % 0.3 mm
10:02 15.8 °C 15.2 °C 1014.4 hPa South 14.5 km/h 24.1 km/h 96 % 0.3 mm
10:12 16.0 °C 15.4 °C 1014.4 hPa WSW 14.5 km/h 19.3 km/h 96 % 0.3 mm
10:17 16.2 °C 15.6 °C 1014.4 hPa WSW 9.7 km/h 27.4 km/h 96 % 0.3 mm
10:22 16.2 °C 15.6 °C 1014.4 hPa WSW 22.5 km/h 27.4 km/h 96 % 0.3 mm
10:27 16.3 °C 15.7 °C 1014.4 hPa SW 22.5 km/h 27.4 km/h 96 % 0.0 mm
10:32 16.4 °C 15.8 °C 1014.4 hPa SW 11.3 km/h 30.6 km/h 96 % 0.0 mm
10:42 16.7 °C 16.1 °C 1014.4 hPa SW 19.3 km/h 27.4 km/h 96 % 0.0 mm
10:47 16.7 °C 16.1 °C 1014.8 hPa SW 9.7 km/h 27.4 km/h 96 % 0.0 mm
10:52 16.8 °C 16.2 °C 1014.8 hPa SSW 12.9 km/h 27.4 km/h 96 % 0.3 mm
10:57 16.8 °C 16.2 °C 1014.8 hPa WSW 16.1 km/h 30.6 km/h 96 % 0.3 mm
11:02 16.8 °C 16.2 °C 1014.8 hPa SW 9.7 km/h 30.6 km/h 96 % 0.3 mm
11:12 16.8 °C 16.2 °C 1014.8 hPa SSW 12.9 km/h 30.6 km/h 96 % 0.5 mm
11:17 16.8 °C 16.2 °C 1014.8 hPa SSW 9.7 km/h 29.0 km/h 96 % 0.5 mm
11:22 16.9 °C 16.3 °C 1014.8 hPa SSW 12.9 km/h 29.0 km/h 96 % 0.8 mm
11:32 17.1 °C 16.5 °C 1014.8 hPa SW 12.9 km/h 30.6 km/h 96 % 0.8 mm
11:42 17.1 °C 16.5 °C 1014.4 hPa WSW 22.5 km/h 30.6 km/h 96 % 1.0 mm
11:47 17.1 °C 16.3 °C 1014.4 hPa WSW 17.7 km/h 30.6 km/h 95 % 1.0 mm
11:52 17.2 °C 16.4 °C 1014.4 hPa WSW 22.5 km/h 30.6 km/h 95 % 1.0 mm
12:02 17.2 °C 16.4 °C 1014.4 hPa SW 14.5 km/h 30.6 km/h 95 % 1.3 mm
12:12 17.2 °C 16.6 °C 1014.4 hPa SW 20.9 km/h 27.4 km/h 96 % 1.0 mm
12:17 17.2 °C 16.4 °C 1014.4 hPa SW 14.5 km/h 33.8 km/h 95 % 1.0 mm
12:22 17.3 °C 16.5 °C 1014.4 hPa SW 20.9 km/h 33.8 km/h 95 % 1.0 mm
12:32 17.5 °C 16.7 °C 1014.4 hPa SW 16.1 km/h 33.8 km/h 95 % 0.8 mm
12:42 17.7 °C 16.7 °C 1014.4 hPa WSW 11.3 km/h 37.0 km/h 94 % 0.5 mm
12:52 17.9 °C 16.8 °C 1014.4 hPa SW 12.9 km/h 37.0 km/h 93 % 0.5 mm
12:57 18.0 °C 16.9 °C 1014.4 hPa SW 22.5 km/h 33.8 km/h 93 % 0.5 mm
13:02 18.1 °C 16.9 °C 1014.4 hPa WSW 24.1 km/h 33.8 km/h 93 % 0.5 mm
13:12 18.3 °C 17.0 °C 1014.4 hPa SW 16.1 km/h 32.2 km/h 92 % 0.3 mm
13:17 18.4 °C 17.1 °C 1014.4 hPa SSW 16.1 km/h 32.2 km/h 92 % 0.0 mm
13:22 18.6 °C 17.1 °C 1014.4 hPa SSW 20.9 km/h 33.8 km/h 91 % 0.0 mm
13:27 18.8 °C 17.1 °C 1014.4 hPa SW 17.7 km/h 33.8 km/h 90 % 0.0 mm
13:32 19.0 °C 17.1 °C 1014.1 hPa SW 27.4 km/h 33.8 km/h 89 % 0.0 mm
13:37 19.1 °C 17.2 °C 1014.4 hPa WSW 12.9 km/h 33.8 km/h 89 % 0.0 mm
13:42 19.2 °C 17.3 °C 1014.1 hPa WSW 9.7 km/h 37.0 km/h 89 % 0.0 mm
13:47 19.3 °C 17.3 °C 1014.4 hPa South 12.9 km/h 37.0 km/h 88 % 0.0 mm
13:52 19.3 °C 17.1 °C 1014.4 hPa WSW 22.5 km/h 35.4 km/h 87 % 0.0 mm
14:02 19.4 °C 17.2 °C 1014.1 hPa WSW 8.0 km/h 30.6 km/h 87 % 0.0 mm
14:12 19.9 °C 17.3 °C 1013.8 hPa West 16.1 km/h 35.4 km/h 85 % 0.0 mm
14:17 20.2 °C 17.4 °C 1013.8 hPa SSW 16.1 km/h 35.4 km/h 84 % 0.0 mm
14:27 20.3 °C 17.3 °C 1013.8 hPa SW 19.3 km/h 35.4 km/h 83 % 0.0 mm
14:32 20.3 °C 17.1 °C 1013.8 hPa SW 29.0 km/h 35.4 km/h 82 % 0.0 mm
14:37 20.4 °C 17.2 °C 1013.8 hPa WSW 19.3 km/h 35.4 km/h 82 % 0.0 mm
14:42 20.5 °C 16.9 °C 1013.8 hPa West 20.9 km/h 35.4 km/h 80 % 0.0 mm
14:47 20.6 °C 16.8 °C 1013.8 hPa WSW 37.0 km/h 38.6 km/h 79 % 0.0 mm
14:57 20.8 °C 17.0 °C 1013.8 hPa WSW 16.1 km/h 38.6 km/h 79 % 0.0 mm
15:02 20.9 °C 16.7 °C 1013.4 hPa WSW 27.4 km/h 37.0 km/h 77 % 0.0 mm
15:12 21.1 °C 16.9 °C 1013.4 hPa SW 16.1 km/h 38.6 km/h 77 % 0.0 mm
15:17 21.1 °C 16.7 °C 1013.4 hPa WSW 30.6 km/h 38.6 km/h 76 % 0.0 mm
15:22 21.1 °C 16.7 °C 1013.4 hPa SW 22.5 km/h 37.0 km/h 76 % 0.0 mm
15:32 21.3 °C 16.9 °C 1013.1 hPa WSW 19.3 km/h 41.8 km/h 76 % 0.0 mm
15:37 21.4 °C 17.0 °C 1013.1 hPa WNW 17.7 km/h 41.8 km/h 76 % 0.0 mm
15:42 21.9 °C 17.1 °C 1012.8 hPa WSW 20.9 km/h 41.8 km/h 74 % 0.0 mm
15:47 22.2 °C 16.9 °C 1012.8 hPa SW 25.7 km/h 51.5 km/h 72 % 0.0 mm
15:52 22.3 °C 16.8 °C 1012.8 hPa WSW 25.7 km/h 51.5 km/h 71 % 0.0 mm
15:57 22.3 °C 16.6 °C 1012.8 hPa SW 16.1 km/h 51.5 km/h 70 % 0.0 mm
16:02 22.3 °C 16.6 °C 1012.8 hPa WSW 37.0 km/h 51.5 km/h 70 % 0.0 mm
16:12 22.2 °C 16.9 °C 1012.8 hPa SW 22.5 km/h 49.9 km/h 72 % 0.0 mm
16:17 22.2 °C 16.9 °C 1012.8 hPa SSE 17.7 km/h 49.9 km/h 72 % 0.0 mm
16:22 22.1 °C 16.8 °C 1012.8 hPa WNW 14.5 km/h 41.8 km/h 72 % 0.0 mm
16:27 22.0 °C 16.9 °C 1012.8 hPa SW 27.4 km/h 41.8 km/h 73 % 0.0 mm
16:32 22.0 °C 16.9 °C 1012.8 hPa WSW 25.7 km/h 41.8 km/h 73 % 0.0 mm
16:42 22.2 °C 16.9 °C 1012.8 hPa WSW 25.7 km/h 43.4 km/h 72 % 0.0 mm
16:47 22.3 °C 16.8 °C 1012.8 hPa West 25.7 km/h 43.4 km/h 71 % 0.0 mm
16:52 22.4 °C 16.7 °C 1012.8 hPa SW 29.0 km/h 43.4 km/h 70 % 0.0 mm
16:57 22.4 °C 16.7 °C 1012.8 hPa WSW 17.7 km/h 43.4 km/h 70 % 0.0 mm
17:02 22.4 °C 16.9 °C 1012.8 hPa WSW 33.8 km/h 43.4 km/h 71 % 0.0 mm
17:12 22.5 °C 16.1 °C 1012.8 hPa WSW 43.4 km/h 43.4 km/h 67 % 0.0 mm
17:17 22.6 °C 16.2 °C 1012.8 hPa SW 25.7 km/h 45.1 km/h 67 % 0.0 mm
17:22 22.7 °C 16.0 °C 1012.8 hPa SSW 14.5 km/h 45.1 km/h 66 % 0.0 mm
17:27 22.6 °C 16.2 °C 1012.8 hPa West 20.9 km/h 45.1 km/h 67 % 0.0 mm
17:32 22.5 °C 16.3 °C 1012.8 hPa WSW 11.3 km/h 43.4 km/h 68 % 0.0 mm
17:42 22.6 °C 15.9 °C 1012.4 hPa SW 20.9 km/h 43.4 km/h 66 % 0.0 mm
17:47 22.6 °C 15.9 °C 1012.4 hPa SW 35.4 km/h 43.4 km/h 66 % 0.0 mm
17:52 22.4 °C 15.7 °C 1012.1 hPa West 32.2 km/h 46.7 km/h 66 % 0.0 mm
17:57 22.3 °C 15.9 °C 1012.4 hPa WSW 22.5 km/h 46.7 km/h 67 % 0.0 mm
18:02 22.3 °C 16.1 °C 1012.4 hPa WSW 17.7 km/h 46.7 km/h 68 % 0.0 mm
18:12 22.4 °C 16.2 °C 1012.1 hPa WSW 17.7 km/h 48.3 km/h 68 % 0.0 mm
18:17 22.4 °C 15.7 °C 1012.1 hPa WSW 19.3 km/h 48.3 km/h 66 % 0.0 mm
18:22 22.3 °C 15.9 °C 1012.1 hPa West 17.7 km/h 48.3 km/h 67 % 0.0 mm
18:27 22.2 °C 15.8 °C 1011.7 hPa WSW 19.3 km/h 48.3 km/h 67 % 0.0 mm
18:32 22.1 °C 15.7 °C 1011.7 hPa WSW 32.2 km/h 45.1 km/h 67 % 0.0 mm
18:37 21.9 °C 16.0 °C 1011.7 hPa WSW 25.7 km/h 53.1 km/h 69 % 0.0 mm
18:42 21.8 °C 15.9 °C 1011.7 hPa WSW 32.2 km/h 53.1 km/h 69 % 0.0 mm
18:47 21.8 °C 16.1 °C 1011.7 hPa West 24.1 km/h 46.7 km/h 70 % 0.0 mm
18:52 21.7 °C 16.0 °C 1011.7 hPa WSW 32.2 km/h 46.7 km/h 70 % 0.0 mm
18:57 21.7 °C 16.2 °C 1011.7 hPa SW 22.5 km/h 49.9 km/h 71 % 0.0 mm
19:02 21.6 °C 15.9 °C 1011.7 hPa SW 27.4 km/h 49.9 km/h 70 % 0.0 mm
19:12 21.3 °C 15.8 °C 1012.1 hPa SW 27.4 km/h 40.2 km/h 71 % 0.0 mm
19:17 21.3 °C 15.8 °C 1012.1 hPa WSW 38.6 km/h 45.1 km/h 71 % 0.0 mm
19:22 21.2 °C 15.5 °C 1012.1 hPa SW 17.7 km/h 46.7 km/h 70 % 0.0 mm
19:27 21.2 °C 15.5 °C 1012.1 hPa SW 41.8 km/h 56.3 km/h 70 % 0.0 mm
19:32 21.1 °C 15.6 °C 1012.1 hPa South 16.1 km/h 56.3 km/h 71 % 0.0 mm
19:42 21.0 °C 15.5 °C 1012.1 hPa SW 22.5 km/h 45.1 km/h 71 % 0.0 mm
19:47 20.9 °C 15.4 °C 1012.1 hPa West 37.0 km/h 41.8 km/h 71 % 0.0 mm
19:52 20.9 °C 15.7 °C 1012.1 hPa SW 12.9 km/h 48.3 km/h 72 % 0.0 mm
20:02 20.8 °C 15.8 °C 1011.7 hPa SW 22.5 km/h 48.3 km/h 73 % 0.0 mm
20:12 20.7 °C 15.7 °C 1011.7 hPa SW 38.6 km/h 48.3 km/h 73 % 0.0 mm
20:17 20.7 °C 15.7 °C 1012.1 hPa SW 22.5 km/h 48.3 km/h 73 % 0.0 mm
20:22 20.6 °C 15.8 °C 1012.1 hPa WSW 29.0 km/h 41.8 km/h 74 % 0.0 mm
20:27 20.6 °C 15.8 °C 1012.1 hPa WSW 22.5 km/h 41.8 km/h 74 % 0.0 mm
20:32 20.5 °C 15.7 °C 1011.7 hPa WSW 38.6 km/h 40.2 km/h 74 % 0.0 mm
20:42 20.4 °C 15.8 °C 1011.7 hPa SSW 19.3 km/h 41.8 km/h 75 % 0.0 mm
20:47 20.4 °C 16.0 °C 1012.1 hPa West 20.9 km/h 48.3 km/h 76 % 0.0 mm
20:52 20.3 °C 15.9 °C 1011.7 hPa WSW 25.7 km/h 48.3 km/h 76 % 0.0 mm
21:02 20.2 °C 16.0 °C 1012.1 hPa SW 12.9 km/h 43.4 km/h 77 % 0.0 mm
21:12 20.1 °C 15.9 °C 1011.7 hPa SW 25.7 km/h 43.4 km/h 77 % 0.0 mm
21:17 19.9 °C 15.9 °C 1012.1 hPa WSW 20.9 km/h 43.4 km/h 78 % 0.0 mm
21:22 19.8 °C 15.9 °C 1012.1 hPa SW 16.1 km/h 43.4 km/h 78 % 0.0 mm
21:32 19.7 °C 16.0 °C 1012.1 hPa SW 19.3 km/h 51.5 km/h 79 % 0.0 mm
21:37 19.7 °C 16.0 °C 1012.1 hPa WSW 22.5 km/h 51.5 km/h 79 % 0.0 mm
21:42 19.6 °C 16.1 °C 1011.7 hPa SW 27.4 km/h 51.5 km/h 80 % 0.0 mm
21:47 19.6 °C 16.1 °C 1012.1 hPa WSW 19.3 km/h 49.9 km/h 80 % 0.0 mm
21:57 19.4 °C 16.1 °C 1012.1 hPa SW 25.7 km/h 41.8 km/h 81 % 0.0 mm
22:02 19.3 °C 16.0 °C 1012.1 hPa West 16.1 km/h 45.1 km/h 81 % 0.0 mm
22:07 19.1 °C 16.0 °C 1012.1 hPa SW 17.7 km/h 45.1 km/h 82 % 0.0 mm
22:12 18.9 °C 15.9 °C 1012.1 hPa WSW 19.3 km/h 45.1 km/h 83 % 0.0 mm
22:17 18.8 °C 16.0 °C 1012.1 hPa SSE 25.7 km/h 38.6 km/h 84 % 0.0 mm
22:22 18.8 °C 16.0 °C 1012.1 hPa WSW 29.0 km/h 41.8 km/h 84 % 0.0 mm
22:32 18.7 °C 16.1 °C 1012.1 hPa South 11.3 km/h 43.4 km/h 85 % 0.0 mm
22:42 18.5 °C 15.9 °C 1012.1 hPa WSW 20.9 km/h 45.1 km/h 85 % 0.0 mm
22:47 18.5 °C 15.9 °C 1011.7 hPa SW 20.9 km/h 45.1 km/h 85 % 0.0 mm
22:52 18.6 °C 16.0 °C 1011.7 hPa SW 17.7 km/h 41.8 km/h 85 % 0.0 mm
22:57 18.4 °C 16.0 °C 1012.1 hPa SSW 12.9 km/h 41.8 km/h 86 % 0.0 mm
23:02 18.3 °C 15.7 °C 1012.1 hPa WSW 37.0 km/h 41.8 km/h 85 % 0.0 mm
23:12 18.5 °C 15.6 °C 1012.1 hPa WSW 37.0 km/h 41.8 km/h 83 % 0.0 mm
23:17 18.5 °C 15.4 °C 1011.7 hPa SSW 20.9 km/h 49.9 km/h 82 % 0.0 mm
23:22 18.4 °C 15.1 °C 1012.1 hPa WSW 33.8 km/h 49.9 km/h 81 % 0.0 mm
23:27 18.4 °C 14.9 °C 1011.7 hPa WSW 16.1 km/h 49.9 km/h 80 % 0.0 mm
23:32 18.3 °C 14.8 °C 1011.7 hPa SW 29.0 km/h 48.3 km/h 80 % 0.0 mm
23:37 18.3 °C 15.0 °C 1011.7 hPa SW 17.7 km/h 56.3 km/h 81 % 0.0 mm
23:42 18.2 °C 15.1 °C 1011.7 hPa WSW 20.9 km/h 56.3 km/h 82 % 0.0 mm
23:47 18.1 °C 15.2 °C 1011.7 hPa SW 25.7 km/h 56.3 km/h 83 % 0.0 mm
23:57 17.9 °C 15.2 °C 1011.4 hPa SSW 24.1 km/h 51.5 km/h 84 % 0.0 mm
Meteo18
Compliments of Weather Underground - 4 mb

Script developed by  Jim McMurry - jmcmurry@mwt.net Adapted for the template by  Wim van der Kuil - Leuven-Template.eu

You find our weather info also at:

European Weather Network

Weather Underground

Equipment we use:

Weather-station
Davis Vue

Weather-program
Meteohub

Weather-server
Raspberry PI 2 B+

Provider
1 and 1

Davis Vue

Meteohub

Raspberry PI 2 B+

1 and 1